Location: Newark
(42.0333°N, 13.0667°E)
Time: 20:30:04
(UTC+00:00)

ISS - Pass Details

Date: 25 November 2019
Orbit: 411 x 421 km, 51.6° (Epoch: 07 December)

Event Time Altitude Azimuth Distance (km) Brightness Sun altitude
Rises 16:35:41 0° 237° (WSW) 2,343 1.8 -10.4°
Reaches altitude 10° 16:37:46 10° 239° (WSW) 1,485 0.5 -10.7°
Maximum altitude 16:41:06 78° 326° (NW) 430 -3.7 -11.3°
Enters shadow 16:43:30 18° 52° (NE) 1,112 -2.2 -11.7°
